| time (UTC) | temp F | wind direction | speed MPH | gust MPH | rain 1hr in | rain 24hr in | rain mn in | humidity % | barometer mb |
| 20260507025447 | 55 | 311 | 1.0 | 3.0 | 0.00 | 0.07 | 0.07 | 98 | 1007.1 |
| 20260507024944 | 55 | 289 | 2.0 | 4.0 | 0.00 | 0.07 | 0.07 | 98 | 1006.8 |
| 20260507024442 | 55 | 280 | 2.0 | 3.0 | 0.00 | 0.07 | 0.07 | 98 | 1006.7 |
| 20260507023937 | 55 | 296 | 0.0 | 3.0 | 0.00 | 0.07 | 0.07 | 98 | 1007.1 |
| 20260507023434 | 55 | 299 | 2.0 | 3.0 | 0.00 | 0.07 | 0.07 | 98 | 1006.9 |
| 20260507022931 | 55 | 300 | 2.0 | 3.0 | 0.00 | 0.07 | 0.07 | 98 | 1007.0 |
| 20260507022429 | 55 | 296 | 1.0 | 2.0 | 0.00 | 0.07 | 0.07 | 98 | 1006.8 |
| 20260507021924 | 55 | 307 | 3.0 | 3.0 | 0.00 | 0.07 | 0.07 | 98 | 1007.0 |
| 20260507021419 | 55 | 333 | 4.0 | 6.0 | 0.00 | 0.07 | 0.07 | 98 | 1006.9 |
| 20260507020918 | 55 | 315 | 2.0 | 3.0 | 0.00 | 0.07 | 0.07 | 98 | 1007.1 |
| 20260507020414 | 55 | 250 | 2.0 | 3.0 | 0.00 | 0.07 | 0.07 | 98 | 1007.0 |
| 20260507015911 | 55 | 259 | 2.0 | 3.0 | 0.00 | 0.07 | 0.07 | 98 | 1007.0 |
| 20260507015409 | 55 | 281 | 3.0 | 3.0 | 0.00 | 0.07 | 0.07 | 98 | 1007.0 |
| 20260507014906 | 55 | 271 | 1.0 | 2.0 | 0.00 | 0.07 | 0.07 | 98 | 1006.8 |
| 20260507014402 | 55 | 290 | 0.0 | 2.0 | 0.00 | 0.07 | 0.07 | 98 | 1006.8 |
| 20260507013859 | 55 | 311 | 1.0 | 2.0 | 0.00 | 0.07 | 0.07 | 98 | 1007.0 |
| 20260507013356 | 55 | 272 | 2.0 | 3.0 | 0.00 | 0.07 | 0.07 | 98 | 1007.0 |
| 20260507012853 | 55 | 283 | 2.0 | 2.0 | 0.00 | 0.07 | 0.07 | 98 | 1007.2 |
| 20260507012349 | 55 | 350 | 1.0 | 2.0 | 0.00 | 0.07 | 0.07 | 98 | 1007.0 |
| 20260507011847 | 55 | 285 | 1.0 | 2.0 | 0.00 | 0.07 | 0.07 | 98 | 1007.0 |
| 20260507011344 | 55 | 331 | 3.0 | 3.0 | 0.00 | 0.07 | 0.07 | 98 | 1007.3 |
| 20260507010843 | 55 | 269 | 2.0 | 3.0 | 0.00 | 0.07 | 0.07 | 98 | 1007.2 |
| 20260507010339 | 55 | 290 | 1.0 | 2.0 | 0.00 | 0.07 | 0.07 | 97 | 1007.4 |
| 20260507005836 | 55 | 304 | 1.0 | 3.0 | 0.00 | 0.07 | 0.07 | 98 | 1007.5 |
| 20260507005333 | 55 | 278 | 2.0 | 4.0 | 0.00 | 0.07 | 0.07 | 97 | 1007.6 |
| 20260507004830 | 55 | 295 | 1.0 | 2.0 | 0.00 | 0.07 | 0.07 | 97 | 1007.4 |
| 20260507004327 | 55 | 258 | 2.0 | 4.0 | 0.00 | 0.07 | 0.07 | 97 | 1007.5 |
| 20260507003824 | 55 | 296 | 1.0 | 2.0 | 0.00 | 0.07 | 0.07 | 97 | 1007.5 |
| 20260507003319 | 54 | 297 | 2.0 | 3.0 | 0.00 | 0.07 | 0.07 | 97 | 1007.3 |
| 20260507002814 | 54 | 307 | 2.0 | 2.0 | 0.00 | 0.07 | 0.07 | 97 | 1007.4 |
| 20260507002311 | 54 | 261 | 1.0 | 3.0 | 0.00 | 0.07 | 0.07 | 97 | 1007.2 |
| 20260507001809 | 54 | 300 | 0.0 | 2.0 | 0.00 | 0.07 | 0.07 | 97 | 1007.2 |
| 20260507001306 | 54 | 294 | 3.0 | 3.0 | 0.00 | 0.07 | 0.07 | 97 | 1007.2 |
| 20260507000802 | 54 | 300 | 2.0 | 2.0 | 0.00 | 0.07 | 0.07 | 97 | 1007.3 |
| 20260507000259 | 54 | 275 | 1.0 | 2.0 | 0.00 | 0.07 | 0.07 | 97 | 1007.1 |
| 20260506235754 | 54 | 309 | 3.0 | 3.0 | 0.00 | 0.07 | 0.07 | 97 | 1007.3 |
| 20260506235250 | 54 | 244 | 2.0 | 4.0 | 0.00 | 0.07 | 0.07 | 97 | 1007.3 |
| 20260506234747 | 54 | 239 | 1.0 | 3.0 | 0.00 | 0.07 | 0.07 | 97 | 1007.2 |
| 20260506234244 | 54 | 329 | 1.0 | 2.0 | 0.00 | 0.07 | 0.07 | 97 | 1007.2 |
| 20260506233743 | 54 | 244 | 2.0 | 3.0 | 0.00 | 0.07 | 0.07 | 97 | 1007.3 |
| 20260506233239 | 54 | 298 | 2.0 | 4.0 | 0.00 | 0.07 | 0.07 | 97 | 1007.4 |
| 20260506232736 | 54 | 274 | 1.0 | 3.0 | 0.00 | 0.07 | 0.07 | 97 | 1007.1 |
| 20260506232236 | 54 | 293 | 2.0 | 4.0 | 0.00 | 0.07 | 0.07 | 97 | 1007.1 |
| 20260506231733 | 54 | 325 | 1.0 | 3.0 | 0.00 | 0.07 | 0.07 | 97 | 1007.1 |
| 20260506231231 | 54 | 305 | 1.0 | 3.0 | 0.07 | 0.07 | 0.07 | 97 | 1007.0 |
| 20260506230728 | 54 | 246 | 3.0 | 4.0 | 0.07 | 0.07 | 0.07 | 97 | 1006.9 |
| 20260506230225 | 54 | 277 | 3.0 | 6.0 | 0.00 | 0.06 | 0.06 | 97 | 1007.3 |
| 20260506225721 | 54 | 215 | 0.0 | 1.0 | 0.00 | 0.06 | 0.06 | 96 | 1007.1 |
| 20260506225219 | 54 | 335 | 0.0 | 2.0 | 0.00 | 0.06 | 0.06 | 96 | 1007.1 |
| 20260506224715 | 55 | 72 | 2.0 | 4.0 | 0.00 | 0.06 | 0.06 | 96 | 1007.1 |
| 20260506224212 | 55 | 345 | 0.0 | 3.0 | 0.00 | 0.06 | 0.06 | 96 | 1007.1 |
| 20260506223708 | 55 | 309 | 2.0 | 2.0 | 0.00 | 0.06 | 0.06 | 96 | 1007.0 |
| 20260506223204 | 55 | 282 | 2.0 | 2.0 | 0.00 | 0.06 | 0.06 | 96 | 1007.0 |
| 20260506222701 | 55 | 323 | 2.0 | 3.0 | 0.00 | 0.06 | 0.06 | 96 | 1007.0 |
| 20260506222156 | 55 | 269 | 1.0 | 4.0 | 0.00 | 0.06 | 0.06 | 96 | 1006.9 |
| 20260506221655 | 55 | 208 | 1.0 | 4.0 | 0.00 | 0.06 | 0.06 | 96 | 1006.7 |
| 20260506221153 | 55 | 292 | 2.0 | 3.0 | 0.00 | 0.06 | 0.06 | 96 | 1007.0 |
| 20260506220649 | 55 | 261 | 2.0 | 3.0 | 0.00 | 0.06 | 0.06 | 96 | 1006.9 |
| 20260506220144 | 55 | 306 | 3.0 | 3.0 | 0.05 | 0.06 | 0.06 | 96 | 1006.8 |
| 20260506215641 | 55 | 289 | 2.0 | 4.0 | 0.05 | 0.06 | 0.06 | 96 | 1006.8 |
| 20260506215136 | 55 | 310 | 4.0 | 4.0 | 0.00 | 0.05 | 0.05 | 96 | 1007.1 |
| 20260506214634 | 55 | 287 | 1.0 | 3.0 | 0.00 | 0.05 | 0.05 | 96 | 1007.3 |
| 20260506214131 | 55 | 294 | 1.0 | 3.0 | 0.00 | 0.05 | 0.05 | 96 | 1007.3 |
| 20260506213629 | 55 | 278 | 3.0 | 7.0 | 0.07 | 0.05 | 0.05 | 96 | 1007.5 |
| 20260506213126 | 55 | 305 | 2.0 | 4.0 | 0.07 | 0.05 | 0.05 | 96 | 1007.5 |
| 20260506212624 | 55 | 316 | 1.0 | 2.0 | 0.00 | 0.04 | 0.04 | 95 | 1007.3 |
| 20260506212118 | 55 | 304 | 2.0 | 4.0 | 0.00 | 0.04 | 0.04 | 95 | 1007.4 |
| 20260506211614 | 55 | 306 | 2.0 | 7.0 | 0.00 | 0.04 | 0.04 | 95 | 1007.4 |
| 20260506211111 | 56 | 36 | 2.0 | 6.0 | 0.07 | 0.04 | 0.04 | 95 | 1007.5 |
| 20260506210608 | 56 | 243 | 2.0 | 3.0 | 0.07 | 0.04 | 0.04 | 95 | 1007.5 |
| 20260506210104 | 56 | 284 | 0.0 | 2.0 | 0.00 | 0.03 | 0.03 | 95 | 1007.7 |
| 20260506205601 | 56 | 304 | 3.0 | 3.0 | 0.00 | 0.03 | 0.03 | 95 | 1007.8 |
| 20260506205056 | 56 | 322 | 2.0 | 8.0 | 0.00 | 0.03 | 0.03 | 95 | 1007.8 |
| 20260506204554 | 56 | 356 | 5.0 | 6.0 | 0.00 | 0.03 | 0.03 | 95 | 1007.8 |
| 20260506204051 | 56 | 312 | 2.0 | 7.0 | 0.00 | 0.03 | 0.03 | 95 | 1007.7 |
| 20260506203550 | 56 | 131 | 3.0 | 4.0 | 0.00 | 0.03 | 0.03 | 95 | 1007.6 |
| 20260506203046 | 56 | 304 | 2.0 | 3.0 | 0.00 | 0.03 | 0.03 | 95 | 1007.8 |
| 20260506202543 | 56 | 321 | 2.0 | 4.0 | 0.00 | 0.03 | 0.03 | 94 | 1008.0 |
| 20260506202039 | 56 | 299 | 3.0 | 4.0 | 0.00 | 0.03 | 0.03 | 94 | 1008.1 |
| 20260506201537 | 56 | 265 | 4.0 | 6.0 | 0.00 | 0.03 | 0.03 | 94 | 1008.0 |
| 20260506201033 | 56 | 289 | 3.0 | 4.0 | 0.00 | 0.03 | 0.03 | 94 | 1008.1 |
| 20260506200530 | 56 | 262 | 2.0 | 6.0 | 0.05 | 0.03 | 0.03 | 94 | 1008.0 |
| 20260506200027 | 56 | 265 | 2.0 | 4.0 | 0.05 | 0.03 | 0.03 | 94 | 1008.3 |
| 20260506195524 | 56 | 313 | 3.0 | 4.0 | 0.00 | 0.02 | 0.02 | 93 | 1008.4 |
| 20260506195020 | 56 | 285 | 2.0 | 7.0 | 0.00 | 0.02 | 0.02 | 93 | 1008.3 |
| 20260506194518 | 56 | 256 | 3.0 | 7.0 | 0.00 | 0.02 | 0.02 | 93 | 1008.1 |
| 20260506194014 | 57 | 299 | 4.0 | 4.0 | 0.00 | 0.02 | 0.02 | 93 | 1008.3 |
| 20260506193511 | 57 | 245 | 2.0 | 4.0 | 0.00 | 0.02 | 0.02 | 93 | 1008.5 |
| 20260506193008 | 56 | 283 | 1.0 | 3.0 | 0.07 | 0.02 | 0.02 | 93 | 1008.4 |
| 20260506192505 | 56 | 289 | 2.0 | 4.0 | 0.07 | 0.02 | 0.02 | 92 | 1008.5 |
| 20260506192001 | 56 | 319 | 3.0 | 4.0 | 0.05 | 0.01 | 0.01 | 91 | 1008.5 |
| 20260506191458 | 57 | 240 | 3.0 | 4.0 | 0.05 | 0.01 | 0.01 | 90 | 1008.6 |
| 20260506190954 | 57 | 143 | 2.0 | 3.0 | 0.00 | 0.00 | 0.00 | 90 | 1008.5 |
| 20260506190451 | 58 | 275 | 2.0 | 4.0 | 0.00 | 0.00 | 0.00 | 88 | 1008.4 |
| 20260506185948 | 58 | 237 | 1.0 | 4.0 | 0.00 | 0.00 | 0.00 | 88 | 1008.5 |
| 20260506185445 | 58 | 245 | 2.0 | 4.0 | 0.00 | 0.00 | 0.00 | 86 | 1008.6 |
| 20260506184942 | 59 | 345 | 4.0 | 6.0 | 0.00 | 0.00 | 0.00 | 85 | 1008.8 |
| 20260506184439 | 60 | 281 | 2.0 | 2.0 | 0.00 | 0.00 | 0.00 | 83 | 1008.7 |
| 20260506183936 | 60 | 278 | 3.0 | 6.0 | 0.00 | 0.00 | 0.00 | 81 | 1008.9 |
| 20260506183431 | 61 | 322 | 1.0 | 3.0 | 0.00 | 0.00 | 0.00 | 79 | 1009.0 |
| 20260506182929 | 61 | 266 | 3.0 | 7.0 | 0.00 | 0.00 | 0.00 | 78 | 1009.0 |
| 20260506182426 | 61 | 278 | 4.0 | 6.0 | 0.00 | 0.00 | 0.00 | 77 | 1009.1 |
| 20260506181923 | 61 | 267 | 4.0 | 7.0 | 0.00 | 0.00 | 0.00 | 76 | 1009.0 |
| 20260506181421 | 61 | 266 | 3.0 | 6.0 | 0.00 | 0.00 | 0.00 | 76 | 1009.1 |
| 20260506180918 | 62 | 290 | 2.0 | 6.0 | 0.00 | 0.00 | 0.00 | 76 | 1009.2 |
| 20260506180414 | 62 | 292 | 3.0 | 4.0 | 0.00 | 0.00 | 0.00 | 75 | 1009.4 |
| 20260506175911 | 62 | 294 | 3.0 | 7.0 | 0.00 | 0.00 | 0.00 | 75 | 1009.1 |
| 20260506175408 | 62 | 290 | 3.0 | 8.0 | 0.00 | 0.00 | 0.00 | 75 | 1009.3 |
| 20260506174905 | 63 | 300 | 3.0 | 4.0 | 0.00 | 0.00 | 0.00 | 74 | 1009.4 |
| 20260506174402 | 63 | 306 | 3.0 | 6.0 | 0.00 | 0.00 | 0.00 | 74 | 1009.5 |
| 20260506173859 | 63 | 235 | 2.0 | 7.0 | 0.00 | 0.00 | 0.00 | 73 | 1009.3 |
| 20260506173356 | 64 | 277 | 2.0 | 9.0 | 0.00 | 0.00 | 0.00 | 73 | 1009.7 |
| 20260506172853 | 64 | 99 | 4.0 | 6.0 | 0.00 | 0.00 | 0.00 | 72 | 1009.7 |
| 20260506172350 | 65 | 270 | 3.0 | 4.0 | 0.00 | 0.00 | 0.00 | 70 | 1009.7 |
| 20260506171847 | 65 | 253 | 2.0 | 6.0 | 0.00 | 0.00 | 0.00 | 72 | 1009.5 |
| 20260506171344 | 65 | 225 | 3.0 | 7.0 | 0.00 | 0.00 | 0.00 | 70 | 1009.8 |
| 20260506170842 | 65 | 293 | 2.0 | 4.0 | 0.00 | 0.00 | 0.00 | 70 | 1009.7 |
| 20260506170338 | 66 | 278 | 2.0 | 4.0 | 0.00 | 0.00 | 0.00 | 69 | 1009.7 |
| 20260506165837 | 67 | 96 | 4.0 | 7.0 | 0.00 | 0.00 | 0.00 | 68 | 1009.6 |
| 20260506165335 | 66 | 141 | 1.0 | 3.0 | 0.00 | 0.00 | 0.00 | 68 | 1009.7 |
| 20260506164831 | 66 | 258 | 5.0 | 8.0 | 0.00 | 0.00 | 0.00 | 68 | 1009.7 |
| 20260506164327 | 67 | 246 | 2.0 | 6.0 | 0.00 | 0.00 | 0.00 | 68 | 1009.9 |
| 20260506163825 | 67 | 157 | 3.0 | 8.0 | 0.00 | 0.00 | 0.00 | 67 | 1009.9 |
| 20260506163319 | 66 | 301 | 1.0 | 6.0 | 0.00 | 0.00 | 0.00 | 70 | 1009.9 |
| 20260506162815 | 66 | 279 | 4.0 | 7.0 | 0.00 | 0.00 | 0.00 | 68 | 1010.0 |
| 20260506162313 | 65 | 325 | 4.0 | 4.0 | 0.00 | 0.00 | 0.00 | 68 | 1010.1 |
| 20260506161810 | 65 | 315 | 3.0 | 8.0 | 0.00 | 0.00 | 0.00 | 69 | 1010.4 |
| 20260506161308 | 65 | 309 | 2.0 | 4.0 | 0.00 | 0.00 | 0.00 | 69 | 1010.4 |
| 20260506160806 | 65 | 240 | 4.0 | 6.0 | 0.00 | 0.00 | 0.00 | 68 | 1010.3 |
| 20260506160302 | 66 | 75 | 2.0 | 4.0 | 0.00 | 0.00 | 0.00 | 69 | 1010.4 |
| 20260506155801 | 66 | 242 | 2.0 | 7.0 | 0.00 | 0.00 | 0.00 | 67 | 1010.3 |
| 20260506155257 | 66 | 293 | 1.0 | 3.0 | 0.00 | 0.00 | 0.00 | 67 | 1010.5 |
| 20260506153410 | 68 | 325 | 3.0 | 6.0 | 0.00 | 0.00 | 0.00 | 64 | 1010.5 |
| 20260506152907 | 69 | 231 | 4.0 | 4.0 | 0.00 | 0.00 | 0.00 | 63 | 1010.4 |
| 20260506152404 | 69 | 262 | 2.0 | 6.0 | 0.00 | 0.00 | 0.00 | 66 | 1010.5 |
| 20260506151902 | 69 | 269 | 4.0 | 11.0 | 0.00 | 0.00 | 0.00 | 63 | 1010.4 |
| 20260506151359 | 69 | 157 | 4.0 | 7.0 | 0.00 | 0.00 | 0.00 | 64 | 1010.7 |
| 20260506150856 | 68 | 259 | 6.0 | 10.0 | 0.00 | 0.00 | 0.00 | 64 | 1010.6 |
| 20260506150352 | 67 | 279 | 2.0 | 8.0 | 0.00 | 0.00 | 0.00 | 66 | 1010.4 |
| 20260506145849 | 67 | 317 | 1.0 | 3.0 | 0.00 | 0.00 | 0.00 | 66 | 1010.6 |
| 20260506145345 | 68 | 148 | 4.0 | 8.0 | 0.00 | 0.00 | 0.00 | 64 | 1010.7 |
| 20260506144843 | 69 | 249 | 3.0 | 6.0 | 0.00 | 0.00 | 0.00 | 64 | 1010.7 |
| 20260506144339 | 67 | 304 | 4.0 | 6.0 | 0.00 | 0.00 | 0.00 | 66 | 1010.7 |
| 20260506143838 | 67 | 11 | 6.0 | 8.0 | 0.00 | 0.00 | 0.00 | 66 | 1010.6 |
| 20260506143335 | 67 | 257 | 3.0 | 7.0 | 0.00 | 0.00 | 0.00 | 68 | 1010.6 |
| 20260506142833 | 68 | 283 | 3.0 | 4.0 | 0.00 | 0.00 | 0.00 | 65 | 1010.5 |
| 20260506142331 | 68 | 299 | 3.0 | 3.0 | 0.00 | 0.00 | 0.00 | 66 | 1010.6 |
| 20260506141829 | 68 | 11 | 3.0 | 6.0 | 0.00 | 0.00 | 0.00 | 66 | 1010.5 |
| 20260506141327 | 65 | 276 | 2.0 | 3.0 | 0.00 | 0.00 | 0.00 | 70 | 1010.7 |
| 20260506140824 | 65 | 279 | 2.0 | 6.0 | 0.00 | 0.00 | 0.00 | 71 | 1010.4 |
| 20260506140321 | 65 | 292 | 3.0 | 6.0 | 0.00 | 0.00 | 0.00 | 70 | 1010.8 |
| 20260506135818 | 65 | 229 | 2.0 | 4.0 | 0.00 | 0.00 | 0.00 | 70 | 1010.6 |
| 20260506135314 | 65 | 300 | 3.0 | 6.0 | 0.00 | 0.00 | 0.00 | 70 | 1010.5 |
| 20260506134811 | 65 | 234 | 2.0 | 3.0 | 0.00 | 0.00 | 0.00 | 70 | 1010.7 |
| 20260506134308 | 65 | 277 | 4.0 | 6.0 | 0.00 | 0.00 | 0.00 | 71 | 1010.7 |
| 20260506133804 | 64 | 211 | 2.0 | 6.0 | 0.00 | 0.00 | 0.00 | 71 | 1010.8 |
| 20260506133301 | 65 | 125 | 1.0 | 3.0 | 0.00 | 0.00 | 0.00 | 71 | 1010.7 |
| 20260506132758 | 65 | 317 | 2.0 | 7.0 | 0.00 | 0.00 | 0.00 | 70 | 1010.9 |
| 20260506132255 | 64 | 249 | 4.0 | 6.0 | 0.00 | 0.00 | 0.00 | 71 | 1011.0 |
| 20260506131753 | 64 | 222 | 2.0 | 6.0 | 0.00 | 0.00 | 0.00 | 71 | 1011.1 |
| 20260506131249 | 65 | 291 | 4.0 | 7.0 | 0.00 | 0.00 | 0.00 | 70 | 1011.1 |
| 20260506130746 | 65 | 311 | 3.0 | 4.0 | 0.00 | 0.00 | 0.00 | 71 | 1011.1 |
| 20260506130243 | 64 | 280 | 1.0 | 3.0 | 0.00 | 0.00 | 0.00 | 73 | 1011.1 |
| 20260506125741 | 63 | 308 | 4.0 | 8.0 | 0.00 | 0.00 | 0.00 | 74 | 1011.2 |
| 20260506125238 | 63 | 227 | 6.0 | 7.0 | 0.00 | 0.00 | 0.00 | 74 | 1011.2 |
| 20260506124737 | 62 | 268 | 2.0 | 6.0 | 0.00 | 0.00 | 0.00 | 76 | 1011.0 |
| 20260506124234 | 62 | 161 | 3.0 | 4.0 | 0.00 | 0.00 | 0.00 | 76 | 1011.0 |
| 20260506123731 | 62 | 300 | 3.0 | 6.0 | 0.00 | 0.00 | 0.00 | 76 | 1010.8 |
| 20260506123230 | 62 | 285 | 2.0 | 6.0 | 0.00 | 0.00 | 0.00 | 77 | 1011.1 |
| 20260506122726 | 61 | 307 | 1.0 | 7.0 | 0.00 | 0.00 | 0.00 | 79 | 1011.0 |
| 20260506122223 | 60 | 289 | 3.0 | 7.0 | 0.00 | 0.00 | 0.00 | 79 | 1010.8 |
| 20260506121722 | 60 | 293 | 2.0 | 3.0 | 0.00 | 0.00 | 0.00 | 81 | 1010.9 |
| 20260506121218 | 60 | 240 | 2.0 | 6.0 | 0.00 | 0.00 | 0.00 | 82 | 1011.0 |
| 20260506120716 | 59 | 234 | 4.0 | 4.0 | 0.00 | 0.00 | 0.00 | 83 | 1011.2 |
| 20260506120213 | 59 | 293 | 4.0 | 6.0 | 0.00 | 0.00 | 0.00 | 84 | 1011.0 |
| 20260506115711 | 58 | 273 | 2.0 | 6.0 | 0.00 | 0.00 | 0.00 | 85 | 1011.1 |
| 20260506115209 | 58 | 295 | 2.0 | 3.0 | 0.00 | 0.00 | 0.00 | 86 | 1011.2 |
| 20260506114706 | 58 | 275 | 3.0 | 4.0 | 0.00 | 0.00 | 0.00 | 86 | 1011.4 |
| 20260506114204 | 58 | 279 | 2.0 | 7.0 | 0.00 | 0.00 | 0.00 | 86 | 1011.5 |
| 20260506113703 | 58 | 273 | 2.0 | 7.0 | 0.00 | 0.00 | 0.00 | 86 | 1011.4 |
| 20260506113159 | 57 | 314 | 3.0 | 4.0 | 0.00 | 0.00 | 0.00 | 87 | 1011.5 |
| 20260506112655 | 57 | 320 | 3.0 | 4.0 | 0.00 | 0.00 | 0.00 | 88 | 1011.4 |
| 20260506112153 | 56 | 310 | 1.0 | 3.0 | 0.00 | 0.00 | 0.00 | 89 | 1011.4 |
| 20260506111650 | 57 | 328 | 2.0 | 3.0 | 0.00 | 0.00 | 0.00 | 88 | 1011.3 |
| 20260506111148 | 57 | 260 | 2.0 | 3.0 | 0.00 | 0.00 | 0.00 | 88 | 1011.3 |
| 20260506110646 | 56 | 254 | 1.0 | 3.0 | 0.00 | 0.00 | 0.00 | 89 | 1011.6 |
| 20260506110143 | 56 | 247 | 3.0 | 4.0 | 0.00 | 0.00 | 0.00 | 90 | 1011.4 |
| 20260506105639 | 56 | 267 | 1.0 | 2.0 | 0.00 | 0.00 | 0.00 | 90 | 1011.0 |
| 20260506105136 | 56 | 202 | 5.0 | 8.0 | 0.00 | 0.00 | 0.00 | 89 | 1011.3 |
| 20260506104634 | 56 | 302 | 2.0 | 3.0 | 0.00 | 0.00 | 0.00 | 90 | 1011.5 |
| 20260506104131 | 56 | 277 | 1.0 | 4.0 | 0.00 | 0.00 | 0.00 | 90 | 1011.4 |
| 20260506103629 | 56 | 215 | 1.0 | 3.0 | 0.00 | 0.00 | 0.00 | 90 | 1011.2 |
| 20260506103125 | 56 | 283 | 2.0 | 3.0 | 0.00 | 0.00 | 0.00 | 90 | 1011.2 |
| 20260506102624 | 56 | 252 | 2.0 | 3.0 | 0.00 | 0.00 | 0.00 | 90 | 1011.0 |
| 20260506102121 | 56 | 274 | 1.0 | 3.0 | 0.00 | 0.00 | 0.00 | 90 | 1011.2 |
| 20260506101617 | 56 | 270 | 2.0 | 3.0 | 0.00 | 0.00 | 0.00 | 90 | 1011.1 |
| 20260506101114 | 56 | 291 | 3.0 | 6.0 | 0.00 | 0.00 | 0.00 | 90 | 1010.9 |
| 20260506100613 | 56 | 273 | 1.0 | 3.0 | 0.00 | 0.00 | 0.00 | 90 | 1011.1 |
| 20260506100110 | 56 | 267 | 2.0 | 4.0 | 0.00 | 0.00 | 0.00 | 90 | 1011.1 |
| 20260506095609 | 56 | 255 | 2.0 | 8.0 | 0.00 | 0.00 | 0.00 | 90 | 1010.9 |
| 20260506095105 | 56 | 250 | 2.0 | 2.0 | 0.00 | 0.00 | 0.00 | 90 | 1011.0 |
| 20260506094603 | 56 | 266 | 2.0 | 3.0 | 0.00 | 0.00 | 0.00 | 90 | 1011.1 |
| 20260506094100 | 56 | 271 | 2.0 | 7.0 | 0.00 | 0.00 | 0.00 | 90 | 1011.1 |
| 20260506093558 | 56 | 258 | 3.0 | 6.0 | 0.00 | 0.00 | 0.00 | 90 | 1011.0 |
| 20260506093055 | 56 | 292 | 3.0 | 6.0 | 0.00 | 0.00 | 0.00 | 90 | 1011.1 |
| 20260506092553 | 56 | 283 | 2.0 | 3.0 | 0.00 | 0.00 | 0.00 | 90 | 1011.0 |
| 20260506092050 | 56 | 287 | 1.0 | 3.0 | 0.00 | 0.00 | 0.00 | 90 | 1011.1 |
| 20260506091548 | 56 | 300 | 2.0 | 3.0 | 0.00 | 0.00 | 0.00 | 89 | 1011.2 |
| 20260506091045 | 56 | 258 | 3.0 | 3.0 | 0.00 | 0.00 | 0.00 | 89 | 1011.3 |
| 20260506090543 | 56 | 284 | 4.0 | 6.0 | 0.00 | 0.00 | 0.00 | 89 | 1011.2 |
| 20260506090039 | 56 | 269 | 2.0 | 7.0 | 0.00 | 0.00 | 0.00 | 88 | 1011.3 |
| 20260506085536 | 56 | 271 | 3.0 | 4.0 | 0.00 | 0.00 | 0.00 | 88 | 1011.1 |
| 20260506085032 | 56 | 323 | 1.0 | 4.0 | 0.00 | 0.00 | 0.00 | 88 | 1011.4 |
| 20260506084530 | 56 | 230 | 4.0 | 8.0 | 0.00 | 0.00 | 0.00 | 88 | 1011.3 |
| 20260506084025 | 56 | 249 | 2.0 | 4.0 | 0.00 | 0.00 | 0.00 | 88 | 1011.5 |
| 20260506083523 | 56 | 276 | 2.0 | 6.0 | 0.00 | 0.00 | 0.00 | 88 | 1011.5 |
| 20260506083020 | 56 | 311 | 2.0 | 6.0 | 0.00 | 0.00 | 0.00 | 87 | 1011.7 |
| 20260506082517 | 56 | 298 | 2.0 | 6.0 | 0.00 | 0.00 | 0.00 | 87 | 1011.5 |
| 20260506082012 | 56 | 334 | 4.0 | 6.0 | 0.00 | 0.00 | 0.00 | 87 | 1011.3 |
| 20260506081511 | 56 | 292 | 3.0 | 4.0 | 0.00 | 0.00 | 0.00 | 87 | 1011.4 |
| 20260506081008 | 56 | 265 | 3.0 | 6.0 | 0.00 | 0.00 | 0.00 | 87 | 1011.6 |
| 20260506080505 | 57 | 284 | 3.0 | 4.0 | 0.00 | 0.00 | 0.00 | 86 | 1011.6 |
| 20260506073449 | 57 | 258 | 4.0 | 6.0 | 0.00 | 0.00 | 0.00 | 86 | 1011.5 |
| 20260506072946 | 57 | 260 | 4.0 | 7.0 | 0.00 | 0.00 | 0.00 | 86 | 1011.7 |
| 20260506072443 | 57 | 274 | 3.0 | 3.0 | 0.00 | 0.00 | 0.00 | 85 | 1011.3 |
| 20260506071941 | 57 | 296 | 3.0 | 10.0 | 0.00 | 0.00 | 0.00 | 85 | 1011.6 |
| 20260506071439 | 57 | 285 | 3.0 | 6.0 | 0.00 | 0.00 | 0.00 | 85 | 1011.4 |
| 20260506070935 | 57 | 298 | 6.0 | 8.0 | 0.00 | 0.00 | 0.00 | 85 | 1011.3 |
| 20260506070432 | 57 | 291 | 3.0 | 4.0 | 0.00 | 0.00 | 0.00 | 85 | 1011.3 |
| 20260506062410 | 57 | 251 | 4.0 | 7.0 | 0.00 | 0.00 | 0.00 | 85 | 1011.6 |
| 20260506061906 | 57 | 319 | 3.0 | 4.0 | 0.00 | 0.00 | 0.00 | 84 | 1011.4 |
| 20260506061402 | 57 | 246 | 4.0 | 6.0 | 0.00 | 0.00 | 0.00 | 84 | 1011.2 |
| 20260506060900 | 57 | 279 | 3.0 | 6.0 | 0.00 | 0.00 | 0.00 | 84 | 1011.5 |
| 20260506060358 | 57 | 278 | 5.0 | 6.0 | 0.00 | 0.00 | 0.00 | 84 | 1011.5 |
| 20260506051330 | 57 | 232 | 3.0 | 7.0 | 0.00 | 0.00 | 0.00 | 82 | 1011.8 |
| 20260506050828 | 57 | 230 | 4.0 | 6.0 | 0.00 | 0.00 | 0.00 | 82 | 1011.9 |
| 20260506050325 | 57 | 262 | 2.0 | 3.0 | 0.00 | 0.00 | 0.00 | 81 | 1011.7 |
| 20260506044815 | 57 | 300 | 5.0 | 6.0 | 0.00 | 0.00 | 0.00 | 80 | 1012.1 |
| 20260506044313 | 57 | 259 | 3.0 | 3.0 | 0.00 | 0.00 | 0.00 | 79 | 1012.2 |
| 20260506043810 | 57 | 295 | 3.0 | 3.0 | 0.00 | 0.00 | 0.00 | 79 | 1011.9 |
| 20260506043307 | 58 | 229 | 3.0 | 6.0 | 0.00 | 0.00 | 0.00 | 79 | 1011.9 |
| 20260506042806 | 58 | 3 | 2.0 | 7.0 | 0.00 | 0.00 | 0.00 | 79 | 1012.0 |
| 20260506042305 | 58 | 243 | 3.0 | 6.0 | 0.00 | 0.00 | 0.00 | 78 | 1011.9 |
| 20260506041803 | 58 | 279 | 1.0 | 4.0 | 0.00 | 0.00 | 0.00 | 78 | 1011.9 |
| 20260506041259 | 58 | 293 | 2.0 | 7.0 | 0.00 | 0.00 | 0.00 | 78 | 1012.0 |
| 20260506040756 | 58 | 262 | 3.0 | 4.0 | 0.00 | 0.00 | 0.00 | 77 | 1011.9 |
| 20260506040254 | 58 | 313 | 4.0 | 7.0 | 0.00 | 0.00 | 0.00 | 77 | 1012.0 |
| 20260506035750 | 58 | 240 | 3.0 | 6.0 | 0.00 | 0.00 | 0.00 | 77 | 1012.0 |
| 20260506035247 | 58 | 296 | 2.0 | 4.0 | 0.00 | 0.00 | 0.00 | 77 | 1011.9 |
| 20260506034744 | 58 | 296 | 3.0 | 4.0 | 0.00 | 0.00 | 0.00 | 77 | 1012.0 |
| 20260506034241 | 58 | 294 | 3.0 | 4.0 | 0.00 | 0.00 | 0.00 | 77 | 1011.7 |
| 20260506033738 | 58 | 265 | 2.0 | 4.0 | 0.00 | 0.00 | 0.00 | 77 | 1012.0 |
| 20260506033235 | 58 | 258 | 2.0 | 4.0 | 0.00 | 0.00 | 0.00 | 76 | 1011.9 |
| 20260506032732 | 58 | 324 | 5.0 | 7.0 | 0.00 | 0.00 | 0.00 | 76 | 1011.9 |
| 20260506032229 | 58 | 10 | 2.0 | 7.0 | 0.00 | 0.00 | 0.00 | 76 | 1011.8 |
| 20260506031726 | 58 | 297 | 3.0 | 4.0 | 0.00 | 0.00 | 0.00 | 75 | 1011.9 |
| 20260506031223 | 58 | 271 | 2.0 | 6.0 | 0.00 | 0.00 | 0.00 | 75 | 1011.9 |
| 20260506030721 | 58 | 281 | 3.0 | 3.0 | 0.00 | 0.00 | 0.00 | 74 | 1011.9 |
| 20260506030219 | 58 | 315 | 3.0 | 4.0 | 0.00 | 0.00 | 0.00 | 74 | 1011.8 |